(563) Suleika
ephemeris date magn radius delta ra dec elong phase
Today11 May 202513.62.881 AU2.379 AU11h07m+19°06'109.7°19.3°
Opposition19 May 202613.13.351 AU2.344 AU15h52m-13°29'173.4°2.0°
(563) Suleika - 2025-05-11
astro.vanbuitenen.nl


 
-1 year
-1 month
-1 day
Now
+1 day
+1 month
+1 year

The interactive orbit chart above shows the body's path through the solar system and its position at the given date. Green and blue lines are shown perpendicular to the ecliptic plane: Green if the path is above the ecliptic plane, blue if it is below. (Left-click and drag to rotate the view; Right-click and drag to move the view; Use scroll wheel to zoom in our out.)

The orbital elements of Suleika are:

            e (Eccentricity)                : 0.2364919
            a (Semimajor axis)              : 2.7113679
            i (Inclination)                 : 10.24748
            Ω (Longitude of ascending node) : 85.15068
            ω (Argument of perihelion)      : 336.57174
            M (Mean anomaly)                : 90.92465
            Epoch                           : 2025 May 05

            L (Longitude of perihelion)     : 62.05669
            B (Latitude of perihelion)      : -4.05610
            P (Orbital period in years)     : 4.46            
        

The light curve chart below shows the estimated development of the minor planet's magnitude.


The all-sky chart below shows the path of the minor planet over the same period as the light curve. The current position is marked yellow.





The following chart shows the path of the minor planet in the next few days. The field of view is optimized for (~10x50) binoculars and finderscopes. A more printer-friendly version of the same chart can be found below.




Ephemerides:
Date       Time       RA (2000)    DEC (2000)    delta   radius  elong  phase   PA    magn
2025-05-11 00:00 UT   11 07 14.6   +19 06 46     2.379    2.881  109.7   19.3   118   13.6 
2025-05-11 14:50 UT   11 07 23.1   +19 03 02     2.388    2.882  109.1   19.3   118   13.6 
2025-05-12 00:00 UT   11 07 28.7   +19 00 43     2.394    2.883  108.8   19.4   118   13.6 
2025-05-13 00:00 UT   11 07 44.0   +18 54 35     2.409    2.885  108.0   19.5   117   13.6 
2025-05-14 00:00 UT   11 08 00.5   +18 48 21     2.423    2.887  107.2   19.5   117   13.6 
2025-05-15 00:00 UT   11 08 18.2   +18 42 01     2.438    2.890  106.3   19.6   117   13.6 
2025-05-16 00:00 UT   11 08 37.0   +18 35 36     2.453    2.892  105.5   19.7   117   13.7 
2025-05-17 00:00 UT   11 08 57.0   +18 29 04     2.468    2.894  104.7   19.8   117   13.7 
2025-05-18 00:00 UT   11 09 18.2   +18 22 28     2.483    2.896  103.9   19.8   116   13.7 
2025-05-19 00:00 UT   11 09 40.4   +18 15 47     2.498    2.899  103.0   19.9   116   13.7 
2025-05-20 00:00 UT   11 10 03.7   +18 08 60     2.513    2.901  102.2   19.9   116   13.7 
2025-05-21 00:00 UT   11 10 28.1   +18 02 08     2.528    2.903  101.4   20.0   116   13.7 
2025-05-22 00:00 UT   11 10 53.6   +17 55 11     2.543    2.905  100.6   20.0   116   13.8 
2025-05-23 00:00 UT   11 11 20.1   +17 48 10     2.558    2.907   99.8   20.1   115   13.8 
2025-05-24 00:00 UT   11 11 47.7   +17 41 04     2.573    2.910   99.0   20.1   115   13.8 
2025-05-25 00:00 UT   11 12 16.2   +17 33 53     2.588    2.912   98.3   20.1   115   13.8 
2025-05-26 00:00 UT   11 12 45.8   +17 26 38     2.604    2.914   97.5   20.2   115   13.8 
2025-05-27 00:00 UT   11 13 16.4   +17 19 19     2.619    2.916   96.7   20.2   115   13.8 
2025-05-28 00:00 UT   11 13 48.0   +17 11 55     2.634    2.918   95.9   20.2   115   13.8 
2025-05-29 00:00 UT   11 14 20.5   +17 04 27     2.650    2.920   95.1   20.2   114   13.9 
2025-05-30 00:00 UT   11 14 53.9   +16 56 55     2.665    2.923   94.4   20.2   114   13.9 
2025-05-31 00:00 UT   11 15 28.3   +16 49 19     2.680    2.925   93.6   20.2   114   13.9 
2025-06-01 00:00 UT   11 16 03.6   +16 41 40     2.696    2.927   92.8   20.2   114   13.9 
2025-06-02 00:00 UT   11 16 39.7   +16 33 56     2.711    2.929   92.1   20.2   114   13.9 
2025-06-03 00:00 UT   11 17 16.8   +16 26 09     2.727    2.931   91.3   20.2   114   13.9 
2025-06-04 00:00 UT   11 17 54.6   +16 18 19     2.742    2.933   90.6   20.2   114   13.9 
2025-06-05 00:00 UT   11 18 33.4   +16 10 25     2.757    2.936   89.8   20.2   113   14.0 
2025-06-06 00:00 UT   11 19 12.9   +16 02 28     2.773    2.938   89.1   20.2   113   14.0 
2025-06-07 00:00 UT   11 19 53.3   +15 54 28     2.788    2.940   88.4   20.2   113   14.0 
2025-06-08 00:00 UT   11 20 34.4   +15 46 24     2.804    2.942   87.6   20.2   113   14.0 
2025-06-09 00:00 UT   11 21 16.3   +15 38 18     2.819    2.944   86.9   20.1   113   14.0 
2025-06-10 00:00 UT   11 21 59.0   +15 30 08     2.834    2.946   86.2   20.1   113   14.0 


    Terminology:
            
    delta:  distance between minor planet and earth in AU
    radius: distance between minor planet and sun in AU
    magn:   magnitude (brightness) estimate    
    ra:     right ascension in hours (24h = 360deg)
    dec:    declination in degrees
    elong:  elongation in degrees (angle sun-earth-minor planet)    
    phase:  phase angle in degrees (angle sun-minor planet-earth)        
    AU:     Astronomical Unit (mean distance between earth and sun: 149597870.7 km
    

Orbital elements provided by the MPC (Minor Planet Center).
Calculations by a modified version of AAPlus, a C# implementation of the AA+ project by PJ Naughter from the algorithms presented in the book "Astronomical Algorithms" by Jean Meeus.
NGC2000 dso catalog and star labels from VizieR as provided by the Strasbourg astronomical Data Center.
Tycho2 catalog from the ESO archive.